Вернуться в каталог

STARLINK-3264

АктивенСвязьVLEO
NORAD 50198·PAYLOAD·🇺🇸 United States

Запущен Dec 18, 2021 с Vandenberg Space Force Base

Loading…

Ближайшие Пролёты (ближайшие 24 часа)

TLE

СвежийSource: CelesTrak SupGP

Эпоха: Sep 14, 2026, 20:38 UTC

1 50198C 21125AU  26257.86020833 -.00005132  00000+0 -25141-3 0  2571
2 50198  53.1585 105.9760 0002446 111.9409 156.8084 15.17644591    17

Отслеживайте STARLINK-3264 в реальном времени с AllMySat

Download on the App Store